Spot 2 Rocket - Orbit

View from above orbital plane
View from above orbital plane
View from above satellite
View from above satellite

Ground track
Ground track

The orbit data is extracted from the following two-line orbital elements,

1 20443U 90005H   13142.88043964  .00000295  00000-0  11527-3 0  5878
2 20443 098.7656 130.3241 0011591 082.2792 334.8107 14.36920050221288
Epoch (UTC): 22 May 2013 21:07:49
Eccentricity: 0.0011591
inclination: 98.7656°
perigee height: 760 km
apogee height: 777 km
right ascension of ascending node: 130.3241°
argument of perigee: 82.2792°
revolutions per day: 14.36920050
mean anomaly at epoch: 334.8107°
orbit number at epoch: 22128

The dashed part of the orbit path shows where the satellite is in the earth's shadow,  

Developed and maintained by Chris Peat, Heavens-Above GmbH. Please read the updated FAQ before sending e-mail. Imprint. DLR